Back to catalog

WESTFORD NEEDLES

AlivePO
NORAD 2359·DEBRIS·🇺🇸 United States

Launched May 9, 1963 from Vandenberg Space Force Base

Loading…

Next Passes (next 24 hours)

TLE

FreshSource: Space-Track

Epoch: Sep 14, 2026, 05:51 UTC

1 02359U 63014J   26257.24386021  .00000757  00000-0  14849+0 0  9995
2 02359  86.8279 355.6471 1263079 344.5344  12.0048  8.71843496922500

Track WESTFORD NEEDLES in real time with AllMySat

Download on the App Store